Stations météo

réclame
Mon MeteoGroup
Exeter Airport No. 2, Grande-Bretagne (3844): Température de l'air & dewpoint: 18.01.2018 05:00:00 - 24.01.2018 05:00:00 (GMT)Exeter Airport No. 2, Grande-Bretagne (3844): Vitesse du vent & gusts: 18.01.2018 05:00:00 - 24.01.2018 05:00:00 (GMT)Exeter Airport No. 2, Grande-Bretagne (3844): Direction du vent: 18.01.2018 05:00:00 - 24.01.2018 05:00:00 (GMT)Exeter Airport No. 2, Grande-Bretagne (3844): reduced air pressure: 18.01.2018 05:00:00 - 24.01.2018 05:00:00 (GMT)Exeter Airport No. 2, Grande-Bretagne (3844): visibility: 18.01.2018 05:00:00 - 24.01.2018 05:00:00 (GMT)Exeter Airport No. 2, Grande-Bretagne (3844): Ensoleillement: 18.01.2018 05:00:00 - 24.01.2018 05:00:00 (GMT)Exeter Airport No. 2, Grande-Bretagne (3844): Quantités de précipitations: 18.01.2018 05:00:00 - 24.01.2018 05:00:00 (GMT)
Date & Time tt [°C] td [°C] ff [km/h] ff [knt] fx [km/h] fx [knt] dd ppp [hPa] vv [km] sd [min] rr [mm]
24.01.2018 05:00:00 12,9 11,5 35 19 61 33 SSW 1007,1 28 0 0,0
24.01.2018 04:00:00 12,5 11,3 26 14 50 27 SSW 1008,5 21 0 0,0
24.01.2018 03:00:00 12,1 10,9 21 11 61 33 SSW 1009,8 13 0 0,0
24.01.2018 02:00:00 12,1 10,2 29 16 48 26 SSW 1010,9 22 0 0,0
24.01.2018 01:00:00 11,7 9,8 34 18 48 26 SSW 1011,7 17 0 0,0
24.01.2018 00:00:00 11,7 9,3 22 12 - - S 1013,1 16 - 0,0
23.01.2018 23:00:00 11,4 9,3 15 8 - - S 1014,1 15 0 0,0
23.01.2018 22:00:00 11,0 9,0 22 12 - - SSW 1014,1 14 0 0,0
23.01.2018 21:00:00 10,2 8,5 16 9 - - SSW 1014,6 14 0 0,0
23.01.2018 20:00:00 10,9 8,5 22 12 - - SW 1014,6 18 0 0,0
23.01.2018 19:00:00 11,2 9,2 15 8 - - SSW 1014,9 28 0 0,0
23.01.2018 18:00:00 11,6 9,5 16 9 - - SW 1014,7 40 0 0,0
23.01.2018 17:00:00 12,8 10,9 15 8 - - SSW 1014,3 50 0 0,0
23.01.2018 16:00:00 13,4 11,1 26 14 - - WSW 1013,7 45 0 0,0
23.01.2018 15:00:00 14,1 11,7 22 12 - - WSW 1013,2 50 18 0,0
23.01.2018 14:00:00 13,5 11,5 15 8 - - S 1013,5 50 0 0,0
23.01.2018 13:00:00 13,4 11,3 21 11 - - SSW 1014,1 21 0 0,0
23.01.2018 12:00:00 13,5 11,3 24 13 - - SW 1014,4 50 12 0,0
23.01.2018 11:00:00 13,3 11,2 24 13 - - SW 1014,7 50 0 0,0
23.01.2018 10:00:00 12,6 11,1 18 10 - - SSW 1014,8 40 0 0,0
23.01.2018 09:00:00 12,4 11,1 22 12 - - SW 1014,7 29 0 0,0
23.01.2018 08:00:00 12,2 11,1 24 13 - - SW 1014,8 18 0 0,0
23.01.2018 07:00:00 11,9 11,1 22 12 - - SW 1014,9 35 0 0,0
23.01.2018 06:00:00 - - - - - - - - - - -
23.01.2018 05:00:00 10,7 10,4 16 9 - - SSW 1015,5 21 0 0,0
23.01.2018 04:00:00 10,3 9,8 24 13 - - S 1016,1 3,7 0 0,0
23.01.2018 03:00:00 10,6 9,1 16 9 - - S 1016,9 18 0 0,0
23.01.2018 02:00:00 10,0 8,1 13 7 - - SSE 1017,5 23 0 0,0
23.01.2018 01:00:00 10,0 8,1 18 10 - - S 1018,6 25 0 0,0
23.01.2018 00:00:00 9,1 7,6 13 7 - - S 1019,0 20 - 0,0
22.01.2018 23:00:00 7,6 6,0 9 5 - - SSW 1019,7 21 0 0,0
22.01.2018 22:00:00 8,5 6,6 13 7 - - S 1019,6 11 0 0,0
22.01.2018 21:00:00 8,5 6,3 11 6 - - SSW 1019,4 28 0 0,0
22.01.2018 20:00:00 8,4 6,0 13 7 - - SSW 1019,5 30 0 0,0
22.01.2018 19:00:00 8,6 5,9 11 6 - - SSW 1019,3 28 0 0,0
22.01.2018 18:00:00 8,1 5,9 9 5 - - W 1018,9 21 0 0,0
22.01.2018 17:00:00 9,1 6,2 15 8 - - W 1018,6 25 0 0,0
22.01.2018 16:00:00 9,6 6,3 15 8 - - W 1018,2 9 0 0,0
22.01.2018 15:00:00 9,9 5,1 16 9 - - WNW 1017,3 30 0 0,0
22.01.2018 14:00:00 10,1 5,5 16 9 - - WNW 1016,6 30 0 0,0
22.01.2018 13:00:00 10,2 6,1 15 8 - - WNW 1016,2 4,7 12 0,0
22.01.2018 12:00:00 10,2 6,9 15 8 - - WNW 1015,5 25 6 0,0
22.01.2018 11:00:00 9,7 7,2 15 8 - - WNW 1014,7 10 18 0,0
22.01.2018 10:00:00 9,4 7,8 13 7 - - WNW 1013,7 15 18 0,0
22.01.2018 09:00:00 8,4 7,5 8 4 - - WNW 1012,2 13 0 0,0
22.01.2018 08:00:00 8,6 7,9 8 4 - - NW 1010,3 15 0 0,2
22.01.2018 07:00:00 8,8 8,2 8 4 - - N 1009,2 6 0 1,6
22.01.2018 06:00:00 8,7 7,8 8 4 - - WNW 1008,3 6 0 0,8
22.01.2018 05:00:00 8,9 7,5 8 4 - - NW 1007,8 4,9 0 0,2
22.01.2018 04:00:00 9,5 7,4 9 5 - - WSW 1007,9 16 0 0,0
22.01.2018 03:00:00 9,5 7,9 9 5 - - SW 1007,7 12 0 0,0
22.01.2018 02:00:00 9,7 7,5 8 4 - - W 1009,3 14 0 0,0
22.01.2018 01:00:00 10,1 7,6 13 7 - - W 1009,0 15 0 0,0
22.01.2018 00:00:00 10,8 8,2 18 10 - - WNW 1009,4 14 - 0,0
21.01.2018 23:00:00 11,1 9,4 16 9 - - W 1009,6 14 0 0,0
21.01.2018 22:00:00 11,5 10,1 24 13 - - WNW 1009,6 22 0 0,0
21.01.2018 21:00:00 12,5 10,6 24 13 - - W 1009,1 50 0 0,0
21.01.2018 20:00:00 12,7 10,8 21 11 - - W 1009,0 50 0 0,0
21.01.2018 19:00:00 12,7 11,0 26 14 - - W 1008,9 50 0 0,2
21.01.2018 18:00:00 12,6 11,5 21 11 - - W 1008,7 40 0 0,0
21.01.2018 17:00:00 12,9 11,2 28 15 - - W 1008,5 35 0 0,0
21.01.2018 16:00:00 13,0 11,1 28 15 46 25 W 1008,6 30 0 0,0
21.01.2018 15:00:00 13,0 11,0 24 13 46 25 W 1008,9 50 0 0,0
21.01.2018 14:00:00 13,1 10,9 24 13 - - W 1009,3 50 0 0,0
21.01.2018 13:00:00 12,7 10,9 24 13 - - W 1009,6 50 0 0,0
21.01.2018 12:00:00 12,6 10,7 26 14 - - W 1010,1 50 0 0,2
21.01.2018 11:00:00 10,0 9,8 2 1 - - ESE 1010,8 11 0 2,0
21.01.2018 10:00:00 9,4 9,0 5 3 - - S 1010,8 2,3 0 1,2
21.01.2018 09:00:00 8,8 8,5 16 9 - - S 1010,9 6 0 0,6
21.01.2018 08:00:00 7,8 7,7 9 5 - - S 1011,6 2,2 0 1,0
21.01.2018 07:00:00 6,7 6,5 15 8 - - SE 1012,4 1,4 0 1,2
21.01.2018 06:00:00 6,1 5,8 16 9 - - SE 1012,9 4,1 0 0,0
21.01.2018 05:00:00 5,6 5,1 11 6 - - SE 1013,5 3,2 0 0,0
21.01.2018 04:00:00 4,6 4,2 2 1 - - S 1013,8 11 0 0,2
21.01.2018 03:00:00 4,4 3,6 0 0 - - N 1014,0 7 0 0,2
21.01.2018 02:00:00 4,3 3,2 4 2 - - ENE 1013,5 11 0 0,0
21.01.2018 01:00:00 4,1 3,2 4 2 - - NE 1013,3 14 0 0,0
21.01.2018 00:00:00 4,1 2,8 5 3 - - NE 1012,3 15 - 0,0
20.01.2018 23:00:00 6,5 4,1 8 4 - - N 1011,3 35 0 0,0
20.01.2018 22:00:00 7,8 4,9 9 5 - - NW 1010,1 40 0 0,0
20.01.2018 21:00:00 7,9 6,0 9 5 - - NW 1008,9 30 0 0,0
20.01.2018 20:00:00 8,4 6,4 13 7 - - NW 1007,0 30 0 0,0
20.01.2018 19:00:00 8,8 7,6 18 10 46 25 NW 1005,1 7 0 0,0
20.01.2018 18:00:00 9,7 6,5 29 16 55 30 NW 1003,4 22 0 0,0
20.01.2018 17:00:00 10,3 6,8 31 17 57 31 WNW 1001,6 18 6 0,0
20.01.2018 16:00:00 10,4 7,4 28 15 63 34 WNW 999,9 28 30 0,0
20.01.2018 15:00:00 11,3 8,6 34 18 63 34 NW 998,8 6 54 0,0
20.01.2018 14:00:00 12,0 10,6 31 17 54 29 WNW 998,3 35 6 0,6
20.01.2018 13:00:00 11,7 10,4 22 12 - - W 998,3 25 18 0,2
20.01.2018 12:00:00 10,2 8,7 18 10 - - WNW 999,0 40 0 0,0
20.01.2018 11:00:00 9,0 8,9 15 8 - - WNW 999,2 45 0 0,0
20.01.2018 10:00:00 6,8 6,7 4 2 - - NNW 999,0 2,1 0 0,2
20.01.2018 09:00:00 6,5 6,4 2 1 - - SSW 998,5 1,2 0 0,2
20.01.2018 08:00:00 6,7 6,4 2 1 - - E 998,4 5 0 0,0
20.01.2018 07:00:00 6,6 6,2 9 5 - - SE 998,6 5 0 0,0
20.01.2018 06:00:00 6,5 5,9 16 9 - - SE 999,3 7 0 0,2
20.01.2018 05:00:00 6,1 5,5 15 8 - - SSE 1000,7 8 0 0,8
20.01.2018 04:00:00 5,5 5,1 11 6 - - ESE 1002,4 7 0 1,0
20.01.2018 03:00:00 5,3 4,3 9 5 - - SSE 1004,9 5 0 1,0
20.01.2018 02:00:00 5,0 3,4 8 4 - - S 1006,9 13 0 0,0
20.01.2018 01:00:00 4,3 2,8 9 5 - - S 1008,7 18 0 0,0
20.01.2018 00:00:00 4,6 2,5 13 7 - - WSW 1009,6 21 - 0,0
19.01.2018 23:00:00 4,2 2,1 13 7 - - SSW 1010,3 25 0 0,0
19.01.2018 22:00:00 4,1 2,4 9 5 - - SSW 1011,1 25 0 0,0
19.01.2018 21:00:00 3,4 2,1 8 4 - - S 1011,4 15 0 0,0
19.01.2018 20:00:00 2,6 1,1 8 4 - - SSW 1011,8 23 0 0,0
19.01.2018 19:00:00 4,7 1,7 22 12 - - W 1011,5 25 0 0,0
19.01.2018 18:00:00 4,3 1,0 13 7 - - W 1011,6 21 0 0,0
19.01.2018 17:00:00 3,9 1,7 9 5 - - W 1011,7 24 0 0,0
19.01.2018 16:00:00 4,7 2,6 13 7 - - WNW 1011,7 29 0 0,0
19.01.2018 15:00:00 4,5 2,3 22 12 48 26 W 1011,5 30 24 0,2
19.01.2018 14:00:00 4,9 2,4 28 15 - - W 1011,7 35 30 0,0
19.01.2018 13:00:00 6,8 2,7 24 13 - - W 1011,6 40 42 0,0
19.01.2018 12:00:00 7,4 2,1 22 12 - - W 1011,8 35 42 0,0
19.01.2018 11:00:00 6,6 2,2 9 5 - - SW 1012,4 35 60 0,0
19.01.2018 10:00:00 4,9 1,7 13 7 - - SW 1011,9 40 54 0,2
19.01.2018 09:00:00 2,7 0,6 9 5 - - WSW 1011,7 25 6 0,0
19.01.2018 08:00:00 2,1 0,8 11 6 - - WSW 1011,4 21 0 0,0
19.01.2018 07:00:00 0,0 -0,7 5 3 - - W 1010,9 20 0 0,0
19.01.2018 06:00:00 1,3 0,4 2 1 - - SSW 1010,6 23 0 0,0
19.01.2018 05:00:00 2,4 1,5 8 4 - - W 1010,3 24 0 0,0
19.01.2018 04:00:00 2,2 1,2 9 5 - - W 1010,3 27 0 0,0
19.01.2018 03:00:00 3,3 1,7 11 6 - - SSW 1010,0 24 0 0,0
19.01.2018 02:00:00 2,5 1,3 11 6 - - WSW 1009,6 24 0 0,0
19.01.2018 01:00:00 4,2 1,9 13 7 - - W 1010,1 27 0 0,0
19.01.2018 00:00:00 3,9 2,2 13 7 - - SW 1009,6 21 - 0,0
18.01.2018 23:00:00 2,8 1,2 13 7 - - WSW 1009,4 19 0 0,0
18.01.2018 22:00:00 3,9 1,3 13 7 - - W 1009,3 22 0 0,0
18.01.2018 21:00:00 4,7 1,4 18 10 - - W 1008,9 26 0 0,0
18.01.2018 20:00:00 4,9 2,2 13 7 - - NW 1009,0 12 0 0,2
18.01.2018 19:00:00 5,4 2,1 15 8 - - W 1008,3 23 0 0,0
18.01.2018 18:00:00 5,3 2,8 15 8 - - W 1007,7 24 0 0,0
18.01.2018 17:00:00 6,0 3,6 15 8 - - WNW 1006,8 26 0 0,0
18.01.2018 16:00:00 6,8 4,0 22 12 - - W 1005,8 4,0 48 0,2
18.01.2018 15:00:00 6,6 4,0 22 12 - - W 1005,5 4,6 36 0,4
18.01.2018 14:00:00 8,0 4,8 21 11 - - W 1005,0 35 24 0,0
18.01.2018 13:00:00 6,6 4,7 22 12 52 28 W 1005,1 27 18 0,8
18.01.2018 12:00:00 9,2 5,2 22 12 - - W 1004,9 35 30 0,2
18.01.2018 11:00:00 7,8 5,8 13 7 - - W 1005,4 8 0 0,0
18.01.2018 10:00:00 6,8 5,6 11 6 - - WNW 1005,0 23 0 0,6
18.01.2018 09:00:00 7,0 5,2 16 9 - - W 1004,4 24 0 0,4
18.01.2018 08:00:00 7,4 5,0 21 11 - - W 1003,5 14 0 0,0
18.01.2018 07:00:00 7,8 3,3 18 10 - - W 1002,8 25 0 0,0
18.01.2018 06:00:00 8,5 3,5 29 16 72 39 W 1002,1 23 0 0,0
18.01.2018 05:00:00 9,4 5,5 29 16 70 38 WNW 1001,4 12 0 0,0

tt = Température de l'air
td = dewpoint
ff = Vitesse du vent
fx = gusts
dd = Direction du vent
ppp = reduced air pressure
vv = visibility
sd = Ensoleillement
rr = Quantités de précipitations

stations d'obs. à proximité